Weather History for 12860 - February, 2014

Change the Weather History Date:

Tuesday, February 4, 2014

  Actual Average Record
Temperature  
Mean Temperature 22 °F -  
Max Temperature 32 °F - - ()
Min Temperature 12 °F - - ()
Degree Days  
Heating Degree Days 43    
Moisture  
Dew Point 17 °F    
Average Humidity 85    
Maximum Humidity 100    
Minimum Humidity 60    
Precipitation  
Precipitation 0.00 in - - ()
Sea Level Pressure  
Sea Level Pressure 30.26 in    
Wind  
Wind Speed 2 mph ()    
Max Wind Speed 7 mph    
Max Gust Speed -    
Visibility 1.8 miles    
Events Fog    
T = Trace of Precipitation, MM = Missing Value Source: Averaged Metar Reports

Daily Weather History Graph

Daily Weather History Graph

Search for Another Location

Airport or City:

Trip Planner

Search our weather history database for the weather conditions in past years. The results will help you decide how hot, cold, wet, or windy it might be!

Date:

Astronomy

Feb. 04, 2014 Rise Set
Actual Time 7:00 AM CET 4:45 PM CET
Civil Twilight 6:28 AM CET 5:18 PM CET
Nautical Twilight 5:51 AM CET 5:54 PM CET
Astronomical Twilight 5:16 AM CET 6:30 PM CET
Moon 9:04 AM CET (2/4) 10:46 PM CET (2/4)
Length of Visible Light 10h 49m
Length of Day
9h 45m
Waxing Crescent, 26% of the Moon is Illuminated
Feb 4
Waxing Crescent
Feb 6
First Quarter
Feb 15
Full
Feb 22
Last Quarter
Mar 1
New

Hourly Weather History & Observations

Time (CET) Temp. Windchill Dew Point Humidity Pressure Visibility Wind Dir Wind Speed Gust Speed Precip Events Conditions
12:00 AM 19 °F - 17 °F 91% 30.29 in 0 mi WSW 2.2 mph - - Fog Fog
12:15 AM 15.8 °F - 14.0 °F 93% 30.24 in 0.5 mi Calm Calm - N/A Fog Light Freezing Fog
12:45 AM 15.8 °F - 12.2 °F 86% 30.24 in 0.4 mi South 2.2 mph - N/A Fog Light Freezing Fog
1:00 AM 15 °F - 12 °F 84% 30.23 in 0 mi Calm Calm - - Fog Fog
1:00 AM - - - N/A% - 1.9 mi North - - N/A Fog Light Freezing Fog
1:15 AM 14.0 °F - 10.4 °F 86% 30.24 in 0.2 mi South 2.2 mph - N/A Fog Light Freezing Fog
1:45 AM 15.8 °F - 14.0 °F 93% 30.24 in 0.5 mi SW 2.2 mph - N/A Fog Light Freezing Fog
2:00 AM 15 °F - 13 °F 88% 30.30 in 0 mi SW 2.2 mph - - Fog Fog
2:15 AM 14.0 °F - 12.2 °F 93% 30.27 in 0.5 mi SW 2.2 mph - N/A Fog Light Freezing Fog
2:45 AM 14.0 °F - 10.4 °F 86% 30.24 in 0.5 mi Calm Calm - N/A Fog Light Freezing Fog
3:00 AM 13 °F - 11 °F 86% 30.30 in 0 mi Calm Calm - - Fog Fog
3:15 AM 14.0 °F - 12.2 °F 93% 30.24 in 0.5 mi Calm Calm - N/A Fog Light Freezing Fog
3:34 AM 14.0 °F - 10.4 °F 86% 30.24 in 0.9 mi Calm Calm - N/A   Mist
3:45 AM 14.0 °F - 10.4 °F 86% 30.24 in 0.9 mi Calm Calm - N/A   Mist
4:00 AM 13 °F - 11 °F 85% 30.30 in 1 mi Calm Calm - - Fog Light Fog
4:15 AM 12.2 °F - 10.4 °F 92% 30.27 in 0.9 mi Calm Calm - N/A   Mist
4:45 AM 14.0 °F - 12.2 °F 93% 30.27 in 0.9 mi Calm Calm - N/A   Mist
5:00 AM 14 °F - 11 °F 85% 30.31 in 1 mi Calm Calm - - Fog Patches of Fog
5:15 AM 14.0 °F - 10.4 °F 86% 30.27 in 1.2 mi Calm Calm - N/A   Mist
5:45 AM - - - N/A% - 1.9 mi Variable 4.5 mph - N/A Fog Light Freezing Fog
6:00 AM 14 °F - 11 °F 82% 30.31 in 1 mi Calm Calm - - Fog Patches of Fog
6:15 AM 14.0 °F - 10.4 °F 86% 30.27 in 1.9 mi Calm Calm - N/A   Partly Cloudy
6:45 AM 12.2 °F - 10.4 °F 92% 30.27 in 0.9 mi Calm Calm - N/A   Partly Cloudy
6:50 AM 12.2 °F - 10.4 °F 92% 30.27 in 0.5 mi Calm Calm - N/A Fog Light Freezing Fog
7:00 AM 12 °F - 10 °F 86% 30.32 in 1 mi Calm Calm - - Fog Patches of Fog
7:15 AM 12.2 °F - 8.6 °F 85% 30.27 in 0.5 mi Calm Calm - N/A Fog Light Freezing Fog
7:45 AM 12.2 °F - 10.4 °F 92% 30.27 in 0.4 mi Calm Calm - N/A Fog Light Freezing Fog
8:00 AM 13 °F - 10 °F 83% 30.32 in 0 mi Calm Calm - - Fog Fog
8:15 AM 15.8 °F - 12.2 °F 86% 30.27 in 0.4 mi Calm Calm - N/A Fog Light Freezing Fog
8:45 AM - - - N/A% - 1.9 mi Variable 4.5 mph - N/A   Mist
9:00 AM 18 °F - 15 °F 85% 30.33 in 0 mi Calm Calm - - Fog Fog
9:15 AM 21.2 °F - 17.6 °F 86% 30.27 in 0.5 mi Calm Calm - N/A Fog Light Freezing Fog
9:36 AM 21.2 °F - 19.4 °F 93% 30.27 in 0.6 mi East 2.2 mph - N/A   Mist
9:45 AM 23.0 °F - 21.2 °F 93% 30.30 in 0.7 mi SSE 2.2 mph - N/A   Mist
10:00 AM 23 °F - 21 °F 91% 30.32 in 1 mi SSE 2.2 mph - - Fog Light Fog
10:02 AM 24.8 °F - 21.2 °F 86% 30.30 in 0.9 mi Calm Calm - N/A   Mist
10:15 AM 24.8 °F - 23.0 °F 93% 30.30 in 1.2 mi SE 2.2 mph - N/A   Mist
10:34 AM 26.6 °F - 21.2 °F 80% 30.30 in 1.6 mi SE 2.2 mph - N/A   Mist
10:45 AM 24.8 °F 19.2 °F 21.2 °F 86% 30.30 in 1.9 mi East 4.5 mph - N/A   Mist
11:00 AM 25 °F - 22 °F 81% 30.32 in 2 mi East 4.5 mph - -   Mist
11:15 AM 28.4 °F - 23.0 °F 80% 30.27 in 2.2 mi Calm Calm - N/A   Mist
11:45 AM - - - N/A% - 3.1 mi East 6.7 mph - N/A   Mist
12:00 PM 30 °F - 22 °F 62% 30.30 in 2 mi East 2.2 mph - -   Haze
12:15 PM 30.2 °F - 23.0 °F 75% 30.27 in 3.1 mi ESE 2.2 mph - N/A   Haze
12:45 PM 30.2 °F 25.5 °F 23.0 °F 75% 30.24 in 3.7 mi East 4.5 mph - N/A   Unknown
1:00 PM 31 °F - 24 °F 64% 30.29 in 4 mi East 4.5 mph - -   Partly Cloudy
1:15 PM 30.2 °F 25.5 °F 23.0 °F 75% 30.24 in 5.0 mi East 4.5 mph - N/A   Unknown
1:45 PM 32.0 °F 25.7 °F 23.0 °F 69% 30.24 in 5.0 mi ESE 6.7 mph - N/A   Unknown
2:00 PM 32 °F - 23 °F 60% 30.28 in 5 mi ESE 6.7 mph - -  
2:15 PM 32.0 °F 25.7 °F 23.0 °F 69% 30.24 in - ESE 6.7 mph - N/A   Clear
2:45 PM - - - N/A% - 3.1 mi ESE 6.7 mph - N/A   Clear
3:00 PM 32 °F - 24 °F 64% 30.28 in 6 mi SE 4.5 mph - -  
3:15 PM 32.0 °F 27.6 °F 24.8 °F 75% 30.24 in - SE 4.5 mph - N/A   Clear
3:45 PM 32.0 °F 27.6 °F 24.8 °F 75% 30.24 in - East 4.5 mph - N/A   Clear
4:00 PM 31 °F - 25 °F 69% 30.27 in 6 mi East 4.5 mph - -  
4:15 PM 30.2 °F 25.5 °F 24.8 °F 80% 30.24 in - East 4.5 mph - N/A   Clear
4:45 PM 28.4 °F 21.4 °F 23.0 °F 80% 30.21 in - East 6.7 mph - N/A   Clear
5:00 PM 28 °F - 23 °F 76% 30.26 in 6 mi East 6.7 mph - -  
5:15 PM 26.6 °F 21.3 °F 23.0 °F 86% 30.21 in - East 4.5 mph - N/A   Clear
5:45 PM - - - N/A% - 3.1 mi ESE 4.5 mph - N/A Fog Light Freezing Fog
6:00 PM 27 °F - 24 °F 82% 30.26 in 6 mi East 4.5 mph - -  
6:15 PM 24.8 °F - 23.0 °F 93% 30.21 in - Calm Calm - N/A   Clear
6:45 PM 24.8 °F - 23.0 °F 93% 30.24 in - East 2.2 mph - N/A   Clear
7:00 PM 24 °F - 22 °F 90% 30.27 in 6 mi East 2.2 mph - -  
7:15 PM 23.0 °F - 21.2 °F 93% 30.21 in - NE 2.2 mph - N/A   Clear
7:45 PM 24.8 °F - 23.0 °F 93% 30.21 in - North 2.2 mph - N/A   Clear
8:00 PM 24 °F - 23 °F 94% 30.26 in 6 mi North 2.2 mph - -  
8:15 PM 21.2 °F - 19.4 °F 93% 30.21 in - NNE 2.2 mph - N/A   Clear
8:45 PM - - - N/A% - 1.9 mi ENE 4.5 mph - N/A Fog Light Freezing Fog
9:00 PM 21 °F - 20 °F 94% 30.26 in 5 mi NE 2.2 mph - -  
9:15 PM 19.4 °F - 17.6 °F 93% 30.21 in 1.9 mi ENE 2.2 mph - N/A   Mist
9:39 PM - - - N/A% - 1.9 mi Variable 4.5 mph - N/A Fog Light Freezing Fog
9:45 PM 19.4 °F - 17.6 °F 93% 30.21 in 1.9 mi ENE 2.2 mph - N/A   Mist
10:00 PM 19 °F - 18 °F 93% 30.25 in 2 mi ENE 2.2 mph - -   Mist
10:00 PM 17.6 °F 10.8 °F 17.6 °F 100% 30.21 in 0.9 mi East 4.5 mph - N/A   Mist
10:11 PM - - - N/A% - 1.9 mi East 4.5 mph - N/A Fog Light Freezing Fog
10:15 PM 19.4 °F - 17.6 °F 93% 30.21 in 0.5 mi East 2.2 mph - N/A Fog Light Freezing Fog
10:45 PM 17.6 °F - 15.8 °F 93% 30.21 in 0.4 mi ENE 2.2 mph - N/A Fog Light Freezing Fog
11:00 PM 17 °F - 15 °F 87% 30.25 in 0 mi ENE 2.2 mph - - Fog Fog
11:00 PM - - - N/A% - 0.9 mi East 4.5 mph - N/A Fog Light Freezing Fog
11:15 PM 15.8 °F - 14.0 °F 93% 30.21 in 0.4 mi Calm Calm - N/A Fog Light Freezing Fog
11:45 PM - - - N/A% - 0.9 mi North - - N/A Fog Light Freezing Fog